[[{"header":{"parameterUnit":"m.s-1","parameterCategory":1,"la1":30.2991,"la2":30.254,"lo1":-89.0895,"lo2":-89.0444,"dy":0.0017,"dx":0.0017,"nx":28,"ny":28,"refTime":"2025-02-02T09:00:00:Z","depth":0,"parameterNumber":2,"parameterNumberName":"U-component_of_WINDS"},"data":[0,0,0,0,0,0,0,0,0,0,0,0,0,0,0,0,0,0,0,0,0,0,0,0,0,0,0,0,0,0,0,0,0,0,0,0,0,0,0,0,0,0,0,0,0,0,0,0,0,0,0,0,0,0,0,0,0,0,0.0818,0.0818,0,0.0822,0.0822,0.0822,0.0818,0.0818,0.0818,0.0818,0.0821,0.0821,0.0822,0,0,0,0,0,0,0,0,0,0,0,0,0,0.0808,0.0808,0.0818,0.0818,0.0818,0.0822,0.0822,0.0822,0.0819,0.0818,0.0818,0.0818,0.0821,0.0821,0.0822,0,0,0,0,0,0,0,0,0,0,0,0,0,0.0812,0.0808,0.0818,0.0817,0.0817,0.0822,0.0822,0.0822,0.0819,0.0818,0.0818,0.0818,0.0821,0.0821,0.0822,0.0827,0,0,0.0822,0.0823,0,0,0,0,0,0,0,0,0.0812,0.0813,0.0817,0.0817,0.0817,0.082,0.0819,0.0824,0.0819,0.0818,0.0818,0.0818,0.0821,0.0821,0.0822,0.0827,0.0828,0.0823,0.0823,0.0823,0.0823,0,0,0,0,0,0,0,0.0812,0.0812,0.082,0.0817,0.0817,0.0816,0.0817,0.082,0.082,0.0818,0.0818,0.0818,0.0821,0.0822,0.0822,0.0828,0.0823,0.0823,0.0823,0.0823,0.0837,0.0837,0,0,0,0,0,0,0.0812,0.0812,0.082,0.082,0.0814,0.0817,0.0817,0.0819,0.082,0.082,0.0818,0.0818,0.0821,0.0822,0.0822,0.0828,0.0823,0.0823,0.0823,0.0837,0.0837,0.0837,0,0,0,0,0,0,0.0811,0.0812,0.0819,0.0816,0.0817,0.0817,0.0819,0.0819,0.082,0.0821,0.0821,0.082,0.0821,0.0822,0.0826,0.0829,0.0823,0.0824,0.0837,0.0837,0.0837,0.0841,0,0,0,0,0,0,0.0811,0.0812,0.0815,0.0816,0.0817,0.0823,0.0819,0.0819,0.0821,0.082,0.0822,0.0822,0.0821,0.0825,0.0826,0.0829,0.0824,0.0836,0.0837,0.0837,0.0841,0.0842,0.0842,0,0,0,0,0,0.0811,0.0816,0.0815,0.0816,0.082,0.0824,0.0824,0.0823,0.0821,0.0823,0.0823,0.0822,0.0828,0.0826,0.0827,0.0829,0.0836,0.0837,0.0837,0.0841,0.0842,0.0842,0,0,0,0,0,0,0.0815,0.0816,0.0815,0.0821,0.0822,0.0823,0.0826,0.0825,0.0826,0.0826,0.0825,0.0825,0.0829,0.083,0.0827,0.0835,0.0832,0.0832,0.0834,0.0835,0.0836,0.0836,0.0824,0,0,0,0,0,0.0817,0.082,0.082,0.0825,0.0826,0.0826,0.0827,0.0827,0.0828,0.0828,0.0829,0.083,0.0832,0.0834,0.0836,0.0841,0.0841,0.0843,0.0844,0.0844,0.0845,0.0847,0.0848,0.0839,0.0839,0.0839,0,0,0.082,0.0821,0.0823,0.0826,0.0827,0.083,0.0826,0.083,0.0831,0.0829,0.0833,0.0833,0.0834,0.0839,0.0841,0.0839,0.0847,0.0845,0.0845,0.0846,0.0847,0.0848,0.0849,0.0839,0.0839,0.0839,0,0,0.0828,0.0829,0.0833,0.0834,0.0835,0.0835,0.0836,0.0837,0.0837,0.0841,0.0838,0.084,0.0844,0.0845,0.0846,0.0853,0.0851,0.0853,0.0857,0.0859,0.086,0.086,0.0862,0.0863,0.0854,0.0854,0.0854,0,0.0832,0.0836,0.0835,0.0838,0.0839,0.0837,0.0841,0.0841,0.0843,0.0844,0.0842,0.0847,0.0847,0.0852,0.0853,0.0854,0.0855,0.0853,0.086,0.086,0.0861,0.0863,0.0864,0.0854,0.0854,0.0854,0.0854,0,0.0841,0.0843,0.0846,0.0848,0.085,0.0853,0.0852,0.0854,0.0853,0.0852,0.0856,0.0856,0.0858,0.0859,0.0858,0.0863,0.0862,0.086,0.0857,0.0862,0.0864,0.0865,0.0855,0.0854,0.0854,0.0854,0,0,0.0851,0.0852,0.0853,0.0853,0.0854,0.0857,0.0859,0.0861,0.0862,0.0863,0.0866,0.0869,0.0867,0.0868,0.0867,0.0868,0.0873,0.0866,0.0866,0.0867,0.0877,0.0879,0.0879,0.0872,0.0872,0.0872,0.0877,0,0.0859,0.0864,0.0863,0.0868,0.087,0.0867,0.087,0.087,0.087,0.0871,0.0871,0.0873,0.087,0.0871,0.0873,0.0872,0.0875,0.0872,0.0873,0.0873,0.0873,0.088,0.0882,0.0887,0.0878,0.0878,0.0878,0,0.0868,0.0869,0.0874,0.0874,0.0875,0.0877,0.0878,0.088,0.088,0.088,0.088,0.0879,0.0881,0.0878,0.0881,0.0879,0.0879,0.0879,0.0879,0.0879,0.0876,0.088,0.0888,0.0889,0.0879,0.0879,0.0879,0,0.0874,0.0877,0.0881,0.0881,0.0881,0.0883,0.0883,0.0883,0.0884,0.0885,0.0885,0.0886,0.0887,0.0887,0.0886,0.0884,0.0889,0.0886,0.0888,0.0888,0.0889,0.0889,0.0897,0.089,0.089,0.089,0.089,0,0.0882,0.0886,0.0884,0.0886,0.0889,0.0887,0.089,0.089,0.089,0.0892,0.0889,0.0891,0.0889,0.089,0.0889,0.0891,0.0892,0.0891,0.0891,0.0891,0.0891,0.0891,0.0891,0.089,0.089,0.089,0.089,0,0.0891,0.0889,0.0893,0.0892,0.0892,0.0895,0.0894,0.0896,0.0895,0.0897,0.0897,0.0896,0.0897,0.0895,0.0897,0.0896,0.0899,0.0898,0.0899,0.0898,0.09,0.09,0.0909,0.091,0.0902,0.0902,0.0902,0,0.0896,0.0898,0.0897,0.0898,0.0898,0.09,0.0901,0.0899,0.09,0.09,0.0901,0.0902,0.0903,0.0905,0.0904,0.0904,0.0903,0.0906,0.0903,0.0903,0.0903,0.0902,0.0902,0.0907,0.0907,0.0907,0.0907,0,0.0904,0.0904,0.0905,0.0906,0.0906,0.0907,0.0907,0.0908,0.0906,0.0907,0.0908,0.0908,0.0909,0.091,0.091,0.091,0.0908,0.0908,0.0908,0.0909,0.0909,0.0908,0.09,0.0908,0.0908,0.0908,0.0907,0.0907,0.0911,0.0913,0.0912,0.0913,0.0913,0.0914,0.0915,0.0914,0.0915,0.0915,0.0914,0.0915,0.0915,0.0915,0.0915,0.0915,0.0914,0.0915,0.0915,0.0915,0.0915,0.0909,0.0915,0.0915,0.0915,0.0915,0.0915,0,0.0919,0.0919,0.092,0.092,0.0921,0.0919,0.0919,0.092,0.0921,0.0921,0.0921,0.0922,0.0922,0.0921,0.0921,0.0922,0.0921,0.0922,0.0922,0.0922,0.0917,0.0916,0.0923,0.0923,0.0923,0.0923,0.0923,0.0923,0.0924,0.0926,0.0925,0.0927,0.0927,0.0928,0.0928,0.0928,0.0928,0.0929,0.0929,0.0928,0.0927,0.0927,0.0928,0.0927,0.0927,0.0928,0.0928,0.0923,0.0922,0.0922,0.0921,0.0929,0.0929,0.0933,0.0933,0.0933]},{"header":{"parameterUnit":"m.s-1","parameterCategory":1,"la1":30.2991,"la2":30.254,"lo1":-89.0895,"lo2":-89.0444,"dy":0.0017,"dx":0.0017,"nx":28,"ny":28,"refTime":"2025-02-02T09:00:00:Z","depth":0,"parameterNumber":3,"parameterNumberName":"V-component_of_WINDS"},"data":[0,0,0,0,0,0,0,0,0,0,0,0,0,0,0,0,0,0,0,0,0,0,0,0,0,0,0,0,0,0,0,0,0,0,0,0,0,0,0,0,0,0,0,0,0,0,0,0,0,0,0,0,0,0,0,0,0,0,1.3131,1.313,0,1.3072,1.3071,1.3071,1.3012,1.3011,1.301,1.301,1.2945,1.2944,1.2943,0,0,0,0,0,0,0,0,0,0,0,0,0,1.3189,1.3188,1.3131,1.313,1.3129,1.3072,1.3071,1.307,1.3012,1.3011,1.301,1.3009,1.2945,1.2944,1.2943,0,0,0,0,0,0,0,0,0,0,0,0,0,1.315,1.3188,1.3131,1.3093,1.309,1.3072,1.3071,1.307,1.3012,1.3011,1.301,1.3009,1.2945,1.2944,1.2942,1.2956,0,0,1.2938,1.2937,0,0,0,0,0,0,0,0,1.3152,1.3148,1.31,1.3096,1.3092,1.3048,1.3068,1.3032,1.3012,1.3041,1.301,1.3008,1.298,1.2975,1.2967,1.2953,1.295,1.2938,1.2937,1.2936,1.2936,0,0,0,0,0,0,0,1.3155,1.315,1.3107,1.3099,1.3094,1.3078,1.3072,1.3061,1.3018,1.3039,1.3034,1.3028,1.2977,1.2968,1.2965,1.2949,1.2938,1.2936,1.2935,1.2935,1.2943,1.2944,0,0,0,0,0,0,1.3164,1.3153,1.3109,1.3106,1.312,1.3078,1.3071,1.3063,1.3018,1.301,1.303,1.3026,1.2971,1.2966,1.2962,1.2975,1.2936,1.2935,1.2934,1.2942,1.2944,1.2945,0,0,0,0,0,0,1.3166,1.3161,1.3112,1.3128,1.3121,1.3078,1.3071,1.3063,1.3054,1.3011,1.3002,1.3029,1.297,1.2964,1.2958,1.2972,1.2934,1.2933,1.2941,1.2943,1.2944,1.3001,0,0,0,0,0,0,1.3168,1.3162,1.3167,1.3129,1.312,1.311,1.3071,1.3062,1.3052,1.3046,1.3007,1.3,1.2969,1.2961,1.2957,1.2969,1.2931,1.2939,1.2942,1.2944,1.2998,1.3005,1.301,0,0,0,0,0,1.317,1.3185,1.3168,1.3163,1.3126,1.3111,1.3106,1.3071,1.3053,1.3058,1.303,1.3001,1.2971,1.2961,1.2956,1.2968,1.2938,1.2941,1.2944,1.2995,1.3003,1.301,0,0,0,0,0,0,1.3225,1.3179,1.316,1.3163,1.3142,1.3101,1.3106,1.3081,1.3063,1.3059,1.3016,1.3007,1.3006,1.2986,1.2975,1.2978,1.2951,1.2952,1.2992,1.2999,1.3005,1.301,1.293,0,0,0,0,0,1.3237,1.323,1.319,1.3196,1.3187,1.3149,1.3141,1.3116,1.3091,1.3082,1.3053,1.303,1.3015,1.3006,1.299,1.2995,1.2985,1.3,1.3007,1.3012,1.3014,1.3015,1.3021,1.2953,1.2953,1.2953,0,0,1.3263,1.3237,1.3235,1.3207,1.3187,1.318,1.3141,1.3135,1.3128,1.308,1.3073,1.3052,1.3022,1.3022,1.302,1.3005,1.3031,1.3015,1.302,1.3019,1.3018,1.3025,1.3031,1.2955,1.2955,1.2954,0,0,1.3306,1.3286,1.3289,1.3271,1.3242,1.3217,1.3218,1.3182,1.3166,1.3159,1.3123,1.3113,1.3089,1.3069,1.3056,1.3092,1.3065,1.3088,1.3121,1.3122,1.3128,1.3132,1.3145,1.315,1.309,1.309,1.309,0,1.3341,1.3329,1.3294,1.329,1.3278,1.3236,1.3239,1.3222,1.3189,1.3182,1.3166,1.3134,1.3111,1.3106,1.3115,1.3106,1.3105,1.3092,1.313,1.3134,1.3138,1.315,1.3154,1.3093,1.3093,1.3093,1.3092,0,1.3374,1.3366,1.3372,1.3343,1.3332,1.3332,1.3295,1.3288,1.3265,1.3241,1.3233,1.3204,1.3182,1.3179,1.3155,1.317,1.3161,1.3139,1.311,1.3148,1.3158,1.3162,1.3098,1.3097,1.3096,1.3095,0,0,1.3449,1.3401,1.3404,1.3391,1.3357,1.3349,1.3346,1.3326,1.3321,1.3299,1.3295,1.3276,1.3255,1.324,1.3213,1.3215,1.3245,1.3191,1.319,1.3202,1.326,1.3277,1.3283,1.3227,1.3228,1.3228,1.3262,0,1.3486,1.348,1.3448,1.345,1.3443,1.3403,1.34,1.3378,1.3356,1.3345,1.3319,1.3306,1.3279,1.327,1.327,1.3242,1.3256,1.3239,1.3221,1.3221,1.323,1.3288,1.3307,1.334,1.3266,1.3267,1.3267,0,1.3528,1.3511,1.3514,1.348,1.3476,1.3474,1.3453,1.3444,1.3417,1.3401,1.3385,1.3356,1.3349,1.3323,1.3313,1.3302,1.3293,1.3278,1.3278,1.3275,1.3247,1.3287,1.335,1.3355,1.3273,1.3272,1.3272,0,1.3583,1.3561,1.3559,1.3549,1.351,1.351,1.3493,1.3466,1.3456,1.3437,1.343,1.341,1.3399,1.3383,1.3349,1.3333,1.3343,1.3313,1.3328,1.3329,1.3331,1.3332,1.3394,1.3326,1.3326,1.3326,1.3326,0,1.3627,1.363,1.3584,1.3583,1.3585,1.3548,1.355,1.3529,1.3506,1.35,1.3463,1.3457,1.3413,1.3402,1.3375,1.337,1.3365,1.3351,1.3344,1.3354,1.3356,1.3347,1.3344,1.3327,1.3327,1.3326,1.3326,0,1.3689,1.3658,1.3654,1.3617,1.3608,1.3611,1.3579,1.3577,1.3552,1.3544,1.354,1.3502,1.3487,1.3451,1.3426,1.3408,1.3411,1.3397,1.342,1.3416,1.3432,1.3431,1.3491,1.3497,1.3426,1.3426,1.3427,0,1.3719,1.3721,1.3685,1.3679,1.3665,1.3655,1.3645,1.3608,1.3599,1.357,1.357,1.3553,1.3537,1.3515,1.3484,1.3464,1.345,1.3473,1.3447,1.3458,1.3451,1.3451,1.3451,1.3478,1.3479,1.348,1.3481,0,1.3777,1.3761,1.3749,1.3732,1.3721,1.3705,1.3687,1.3684,1.3643,1.3634,1.3619,1.3607,1.3583,1.3566,1.3542,1.3523,1.3495,1.3489,1.3492,1.3502,1.3516,1.3509,1.3436,1.3488,1.3487,1.3487,1.3486,1.3486,1.3823,1.3823,1.3798,1.3786,1.3769,1.3753,1.3749,1.3724,1.3712,1.3691,1.3669,1.3657,1.363,1.3596,1.3579,1.3567,1.3553,1.3556,1.3557,1.3558,1.3563,1.3518,1.3563,1.3562,1.3562,1.3562,1.3562,0,1.3879,1.3861,1.385,1.3827,1.3817,1.3793,1.3772,1.3765,1.3755,1.3734,1.3719,1.3702,1.3686,1.3654,1.3634,1.3631,1.3618,1.3627,1.3627,1.3623,1.3577,1.3577,1.3638,1.3638,1.3638,1.3638,1.3638,1.3638,1.3907,1.3905,1.3887,1.3876,1.3858,1.3847,1.3837,1.3822,1.3805,1.3788,1.3775,1.3754,1.3728,1.3706,1.369,1.368,1.3675,1.3688,1.3675,1.3633,1.3626,1.3619,1.3619,1.3687,1.3688,1.3721,1.3722,1.3722]}]]